Regional Weather Roundup
Issued by NWS

Home | Current Version | Previous Version | Graphics & Text | Print | Product List | Glossary On
Versions: 1 2 3 4 5 6 7 8 9 10 11 12 13 14 15 16 17 18 19 20 21 22 23 24 25 26 27 28 29 30 31 32 33 34 35 36 37 38 39 40 41 42 43 44 45 46 47 48 49 50
000
ASUS43 KMKX 281311
RWRWI

WISCONSIN REGIONAL WEATHER ROUNDUP
NATIONAL WEATHER SERVICE MILWAUKEE/SULLIVAN WI
800 AM CDT SUN AUG 28 2016

NOTE: "FAIR" INDICATES FEW OR NO CLOUDS BELOW 12,000 FEET WITH NO
SIGNIFICANT WEATHER AND/OR OBSTRUCTIONS TO VISIBILITY.

WIZ001-002-006>008-014>016-023>028-281400-
NORTHWEST WISCONSIN

CITY           SKY/WX    TMP DP  RH WIND       PRES   REMARKS
SUPERIOR ARPT  CLOUDY    60  60 100 SW3       30.16S
ASHLAND        CLOUDY    60  60 100 S3        30.18R FOG
HAYWARD        CLOUDY    61  58  90 CALM      30.19R
SIREN          FOG       60  59  97 SE5       30.17R VSB 1/2
CUMBERLAND     FOG       57  55  94 E3        30.18R VSB<1/4
RICE LAKE      FOG       60  58  96 CALM      30.20R VSB 1/4
CHETEK         NOT AVBL
LADYSMITH      CLOUDY    62  62  97 CALM      30.21R
EAU CLAIRE     CLOUDY    63  63 100 SE5       30.17S FOG
MENOMONIE      CLOUDY    63  63 100 SE5       30.18S FOG
NEW RICHMOND   CLOUDY    60  60 100 CALM      30.16S
OSCEOLA        CLOUDY    60  60 100 SE6       30.19R FOG
$$

WIZ003>005-009-010-017-018-281400-
NORTH CENTRAL WISCONSIN

CITY           SKY/WX    TMP DP  RH WIND       PRES   REMARKS
MANITOWISH WTR NOT AVBL
ARBOR VITAE    CLOUDY    63  60  91 CALM      30.19R
WOODRUFF       CLOUDY    63  60  91 CALM      30.19R
RHINELANDER    CLOUDY    62  62 100 SW5       30.20S
EAGLE RIVER    CLOUDY    62  60  94 CALM      30.18S
LAND O LAKES   CLOUDY    63  60  91 CALM      30.20S
PHILLIPS       CLOUDY    61  60  97 CALM      30.20R
TOMAHAWK       CLOUDY    60  59  96 CALM      30.21R
MEDFORD        PTSUNNY   61  61 100 N3        30.20R
MERRILL        PTSUNNY   62  62  99 W3        30.20S
$$

WIZ029-030-035-036-043>047-281400-
CENTRAL WISCONSIN

CITY           SKY/WX    TMP DP  RH WIND       PRES   REMARKS
WAUSAU         SUNNY     63  60  90 W3        30.18S
MOSINEE        PTSUNNY   61  61 100 N7        30.21R FOG
MARSHFIELD     SUNNY     64  61  90 N3        30.19R
STEVENS POINT  FOG       60  60 100 CALM      30.20R VSB 3/4
WAUPACA        SUNNY     67  66  97 CALM      30.20R
WAUTOMA        CLOUDY    64  64 100 CALM      30.20R
WISC RAPIDS    PTSUNNY   66  63  90 SW3       30.21R
CAMP DOUGLAS   CLOUDY    66  66 100 E1        30.19R FOG
$$

WIZ011>013-019>022-031-037>040-048>050-281400-
NORTHEAST WISCONSIN

CITY           SKY/WX    TMP DP  RH WIND       PRES   REMARKS
ANTIGO         PTSUNNY   61  61  98 CALM      30.20S
SHAWANO        PTSUNNY   65  63  95 CALM      30.20R FOG
OCONTO         NOT AVBL
STURGEON BAY   CLOUDY    65  64  97 SW6       30.19R
GREEN BAY      CLOUDY    63  63 100 W3        30.19R FOG
MANITOWOC      SUNNY     67  64  90 MISG      30.20R
APPLETON       MOSUNNY   64  64 100 W3        30.18S
CLINTONVILLE   FOG       61  61 100 CALM      30.20R VSB 1/4
OSHKOSH        MOSUNNY   66  64  93 W3        30.20R
$$

WIZ032>034-041-042-053>061-281400-
SOUTHWEST WISCONSIN

CITY           SKY/WX    TMP DP  RH WIND       PRES   REMARKS
LA CROSSE      CLOUDY    67  67 100 E5        30.17R FOG
SPARTA         CLOUDY    64  64 100 E3        30.19R FOG
VIROQUA        CLOUDY    62  62 100 E5        30.19R VSB 1/2
BOSCOBEL       FOG       64  63  96 VRB3      30.19R VSB 1/2
PRAIRIE DU CHI FOG       63  61  96 CALM      30.18R VSB 1/4
PLATTEVILLE    MOSUNNY   66  66 100 E6        30.19R
$$

WIZ056-057-062-063-064-067-068-281400-
SOUTH CENTRAL WISCONSIN

CITY           SKY/WX    TMP DP  RH WIND       PRES   REMARKS
REEDSBURG      NOT AVBL
BARABOO/DELLS  FOG       63  62  96 E3        30.21R VSB 1/4
LONE ROCK      FOG       64  63  96 CALM      30.20R VSB 1/2
MINERAL POINT  SUNNY     68  68 100 CALM      30.20R
MADISON        FOG       64  64 100 CALM      30.19R VSB<1/4
MIDDLETON      CLOUDY    63  63 100 CALM      30.21R VSB<1/4
WATERTOWN      FOG       62  62 100 NE3       30.21R VSB 1/4
MONROE         FOG       64  64 100 CALM      30.20R VSB<1/4
JANESVILLE     MOSUNNY   68  68 100 CALM      30.18R FOG
$$

WIZ051-052-058>065-066-070>072-281400-
SOUTHEAST WISCONSIN

CITY           SKY/WX    TMP DP  RH WIND       PRES   REMARKS
MILWAUKEE      MOSUNNY   73  67  81 CALM      30.19R
WAUKESHA       FOG       63  63 100 CALM      30.21R VSB 1/4
MILWAUKEE/TIMM SUNNY     64  63  94 NW3       30.21R
RACINE         SUNNY     71  67  87 CALM      30.21R
BURLINGTON     CLOUDY    65  64  99 CALM      30.20R FOG
KENOSHA        PTSUNNY   70  68  93 CALM      30.20R
FOND DU LAC    CLOUDY    66  63  90 CALM      30.20R
SHEBOYGAN      MOSUNNY   66  64  93 CALM      30.20R
WEST BEND      CLOUDY    63  63 100 N7        30.21R FOG
JUNEAU         CLOUDY    63  63  99 NE5       30.22R FOG
$$

LSZ147-162-281400-
LAKE SUPERIOR

STATION/POSITION TIME  TEMP    WIND        PRES    WAVE
                       AIR SEA DIR/SP/G            HT/PER
                 (UTC) (F)     (DEG/KT/KT) (MB)    (FT/S)
W MID LAKE BUOY  1250   65 67  280/  6/  6 1020.4R   1/ 3
DEVILS ISLAND    1300   63     220/  9/ 10 1021.4R
PORT WING        1200   60     200/  4/  6 1021.0R
SAXON HARBOR     1240   63      CALM  /  1 1021.0R
$$

LMZ867-665-643>646-281400-
LAKE MICHIGAN

STATION/POSITION TIME  TEMP    WIND        PRES    WAVE
                       AIR SEA DIR/SP/G            HT/PER
                 (UTC) (F)     (DEG/KT/KT) (MB)    (FT/S)
CHAMBERS ISLAND  1200   66     220/  7/ 10 1021.0R
S GREEN BAY BUOY 1200   66 71  250/  8/ 10 1021.1
N MID LAKE BUOY  1250   67 70  250/ 12/ 14 1020.6R   1/ 3
NORTHPORT PIER   1200   68     270/  4/  7 1020.7R
SISTER BAY       1237   72     300/ 13/ 15   N/A
KEWAUNEE LAKESHO 1200          190/  2/  4 1021.2R
SHEBOYGAN LAKESH 1300   65     300/  3/  4 1022.3R
PORT WASHINGTON  1240   65     360/  4/ 10 1023.0R
ATWATER BUOY     1200   65     340/  4/  6   N/A
MILWAUKEE LAKESH 1210   65     100/  2/  2   N/A
S MID LAKE BUOY  1250   73 74   40/  6/  8 1021.6R   1
KENOSHA   LAKESH 1300   67      CALM  /  1 1022.4R
$$

TC  - TEMPERATURE IN CELSIUS
VSB - VISIBILITY IN STATUTE MILES
WCI - WIND CHILL INDEX
HX  - HEAT INDEX





USA.gov is the U.S. government's official web portal to all federal, state and local government web resources and services.